Thedford, NE

3:05 AM CST on November 20, 2019 (GMT -0600)
Thedford

Weather History for KTIF - October, 2019

Change the Weather History Date:

Sunday, October 20, 2019

  Actual Average (KANW) Record (KANW)
Temperature  
Mean Temperature 48 °F -  
Max Temperature 58 °F 58 °F 80 °F (2012)
Min Temperature 38 °F 35 °F 23 °F (2011)
Degree Days  
Heating Degree Days 18    
Moisture  
Dew Point 31 °F    
Average Humidity 52    
Maximum Humidity 87    
Minimum Humidity 29    
Precipitation  
Precipitation 0.00 in - - ()
Sea Level Pressure  
Sea Level Pressure 29.55 in    
Wind  
Wind Speed 11 mph ()    
Max Wind Speed 24 mph    
Max Gust Speed 36 mph    
Visibility 10.0 miles    
Events Rain , Thunderstorm    
Averages and records for this station are not official NWS values.
T = Trace of Precipitation, MM = Missing Value Source: Averaged Metar Reports

Daily Weather History Graph

Daily Weather History Graph

Search for Another Location

Airport or City:

Astronomy

Oct. 20, 2019 Rise Set
Actual Time 8:00 AM CDT 6:53 PM CDT
Civil Twilight 7:31 AM CDT 7:21 PM CDT
Nautical Twilight 6:59 AM CDT 7:53 PM CDT
Astronomical Twilight 6:27 AM CDT 8:26 PM CDT
Moon No Moon Rise 2:33 PM CDT
Length of Visible Light 11h 49m
Length of Day
10h 52m
Waning Gibbous, 59% of the Moon is Illuminated
Oct 20
Waning Gibbous
Oct 21
Last Quarter
Oct 27
New
Nov 4
First Quarter
Nov 12
Full

Hourly Weather History & Observations

Time (CDT) Temp. Windchill Dew Point Humidity Pressure Visibility Wind Dir Wind Speed Gust Speed Precip Events Conditions
12:15 AM 49.3 °F - 23.5 °F 36% 29.70 in 10.0 mi South 11.5 mph - N/A   Clear
12:35 AM 49.5 °F - 23.9 °F 37% 29.69 in 10.0 mi South 13.8 mph - N/A   Clear
12:55 AM 48.7 °F - 24.3 °F 38% 29.68 in 10.0 mi SSE 5.8 mph - N/A   Clear
1:15 AM 45.9 °F 41.7 °F 24.8 °F 44% 29.67 in 10.0 mi SSE 8.1 mph - N/A   Clear
1:35 AM 47.7 °F - 25.2 °F 41% 29.66 in 10.0 mi SSE 9.2 mph - N/A   Clear
1:55 AM 47.3 °F - 25.7 °F 43% 29.65 in 10.0 mi SSE 9.2 mph - N/A   Clear
2:15 AM 47.3 °F - 25.7 °F 43% 29.64 in 10.0 mi SSE 10.4 mph - N/A   Scattered Clouds
2:35 AM 47.5 °F - 26.1 °F 43% 29.63 in 10.0 mi SE 11.5 mph - N/A   Scattered Clouds
2:55 AM 47.3 °F - 26.4 °F 44% 29.62 in 10.0 mi SE 12.7 mph - N/A   Clear
3:15 AM 45.7 °F 41.0 °F 26.6 °F 47% 29.62 in 10.0 mi SSE 9.2 mph - N/A   Clear
3:35 AM 45.5 °F 40.3 °F 27.5 °F 49% 29.61 in 10.0 mi SSE 10.4 mph - N/A   Clear
3:55 AM 46.4 °F 41.9 °F 29.5 °F 52% 29.60 in 10.0 mi SSE 9.2 mph - N/A   Clear
4:15 AM 48.2 °F - 31.8 °F 53% 29.59 in 10.0 mi SSE 10.4 mph 18.4 mph N/A   Scattered Clouds
4:35 AM 49.5 °F - 32.2 °F 51% 29.57 in 10.0 mi SSE 17.3 mph 21.9 mph N/A   Clear
4:55 AM 49.3 °F - 32.5 °F 53% 29.56 in 10.0 mi SSE 16.1 mph 21.9 mph N/A   Clear
5:15 AM 47.3 °F - 32.4 °F 56% 29.55 in 10.0 mi SSE 11.5 mph - N/A   Clear
5:35 AM 46.8 °F - 32.9 °F 59% 29.55 in 10.0 mi SSE 11.5 mph - N/A   Clear
5:55 AM 47.3 °F - 33.1 °F 58% 29.55 in 10.0 mi SSE 13.8 mph - N/A   Clear
6:15 AM 47.8 °F - 33.3 °F 57% 29.54 in 10.0 mi SE 13.8 mph 19.6 mph N/A   Clear
6:35 AM 48.6 °F - 33.3 °F 56% 29.55 in 10.0 mi SSE 12.7 mph - N/A   Clear
6:55 AM 49.1 °F - 33.3 °F 54% 29.55 in 10.0 mi South 15.0 mph - N/A   Clear
7:15 AM 48.7 °F - 33.3 °F 55% 29.56 in 10.0 mi SSE 13.8 mph - N/A   Clear
7:35 AM 47.8 °F - 33.3 °F 57% 29.56 in 10.0 mi SSE 9.2 mph - N/A   Clear
7:55 AM 48.6 °F - 33.4 °F 56% 29.55 in 10.0 mi SSE 11.5 mph 17.3 mph N/A   Clear
8:15 AM 51.1 °F - 33.8 °F 52% 29.55 in 10.0 mi South 17.3 mph 20.7 mph N/A   Clear
8:35 AM 51.1 °F - 34.0 °F 52% 29.54 in 10.0 mi South 17.3 mph 21.9 mph N/A   Clear
8:55 AM 50.9 °F - 34.2 °F 53% 29.54 in 10.0 mi South 13.8 mph 19.6 mph N/A   Scattered Clouds
9:15 AM 50.9 °F - 34.3 °F 53% 29.54 in 10.0 mi South 17.3 mph - N/A   Clear
9:35 AM 50.9 °F - 34.3 °F 53% 29.54 in 10.0 mi South 17.3 mph 21.9 mph N/A   Mostly Cloudy
9:55 AM 51.1 °F - 34.7 °F 54% 29.56 in 10.0 mi SSW 15.0 mph 24.2 mph N/A   Mostly Cloudy
10:15 AM 50.7 °F - 33.3 °F 51% 29.56 in 10.0 mi SW 16.1 mph 21.9 mph N/A   Scattered Clouds
10:35 AM 50.9 °F - 33.6 °F 52% 29.56 in 10.0 mi WSW 15.0 mph 18.4 mph N/A   Mostly Cloudy
10:55 AM 51.1 °F - 32.0 °F 48% 29.55 in 10.0 mi West 16.1 mph 23.0 mph N/A   Overcast
11:15 AM 52.5 °F - 30.9 °F 44% 29.55 in 10.0 mi West 15.0 mph 19.6 mph N/A   Overcast
11:35 AM 53.1 °F - 30.0 °F 41% 29.56 in 10.0 mi West 12.7 mph - N/A   Mostly Cloudy
11:55 AM 52.7 °F - 27.5 °F 38% 29.56 in 10.0 mi WSW 13.8 mph - N/A   Mostly Cloudy
12:15 PM 54.9 °F - 28.0 °F 36% 29.55 in 10.0 mi West 11.5 mph 17.3 mph N/A   Scattered Clouds
12:35 PM 54.7 °F - 28.6 °F 37% 29.56 in 10.0 mi West 11.5 mph - N/A   Mostly Cloudy
12:55 PM 55.6 °F - 29.5 °F 37% 29.55 in 10.0 mi West 11.5 mph - N/A   Mostly Cloudy
1:15 PM 56.5 °F - 30.2 °F 37% 29.54 in 10.0 mi WNW 8.1 mph - N/A   Scattered Clouds
1:35 PM 56.5 °F - 31.6 °F 39% 29.54 in 10.0 mi WSW 5.8 mph - N/A   Clear
1:55 PM 56.3 °F - 31.3 °F 39% 29.53 in 10.0 mi West 3.5 mph - N/A   Scattered Clouds
2:15 PM 56.8 °F - 32.0 °F 39% 29.50 in 10.0 mi Calm Calm - N/A   Scattered Clouds
2:35 PM 55.9 °F - 31.1 °F 39% 29.49 in 10.0 mi South 6.9 mph - N/A   Mostly Cloudy
2:55 PM 55.2 °F - 28.8 °F 36% 29.51 in 10.0 mi WSW 19.6 mph 29.9 mph N/A   Overcast
3:15 PM 52.3 °F - 25.9 °F 36% 29.51 in 10.0 mi WSW 18.4 mph 25.3 mph N/A   Mostly Cloudy
3:35 PM 53.1 °F - 25.9 °F 35% 29.51 in 10.0 mi WSW 17.3 mph 23.0 mph N/A   Scattered Clouds
3:55 PM 53.6 °F - 26.2 °F 35% 29.51 in 10.0 mi SW 9.2 mph - N/A   Clear
4:15 PM 55.0 °F - 26.4 °F 33% 29.49 in 10.0 mi SSW 6.9 mph - N/A   Clear
4:35 PM 57.0 °F - 26.1 °F 30% 29.49 in 10.0 mi SSW 9.2 mph - N/A   Clear
4:55 PM 57.2 °F - 25.0 °F 29% 29.49 in 10.0 mi SW 8.1 mph - N/A   Clear
5:15 PM 55.8 °F - 25.5 °F 31% 29.48 in 10.0 mi SSW 9.2 mph - N/A   Mostly Cloudy
5:35 PM 55.4 °F - 25.3 °F 31% 29.48 in 10.0 mi SSW 13.8 mph 17.3 mph N/A   Overcast
5:55 PM 54.7 °F - 28.0 °F 36% 29.48 in 10.0 mi WSW 13.8 mph 18.4 mph N/A   Overcast
6:15 PM 53.6 °F - 30.7 °F 42% 29.49 in 10.0 mi West 10.4 mph 20.7 mph N/A   Overcast
6:35 PM 52.5 °F - 32.0 °F 46% 29.50 in 10.0 mi SW 24.2 mph 31.1 mph N/A Rain Rain
6:55 PM 49.1 °F - 34.7 °F 58% 29.50 in 10.0 mi West 13.8 mph 17.3 mph N/A   Overcast
7:15 PM 48.4 °F - 35.4 °F 61% 29.49 in 10.0 mi WSW 4.6 mph - N/A   Overcast
7:35 PM 45.7 °F 40.2 °F 36.0 °F 69% 29.50 in 10.0 mi WSW 11.5 mph - N/A   Scattered Clouds
7:55 PM 44.4 °F 40.0 °F 36.5 °F 74% 29.50 in 10.0 mi West 8.1 mph - N/A   Clear
8:15 PM 43.9 °F 39.9 °F 36.7 °F 76% 29.51 in 10.0 mi WSW 6.9 mph - N/A   Scattered Clouds
8:35 PM 43.3 °F 38.1 °F 36.5 °F 77% 29.51 in 10.0 mi West 9.2 mph - N/A   Overcast
8:55 PM 42.8 °F 39.3 °F 36.5 °F 78% 29.51 in 10.0 mi West 5.8 mph - N/A Thunderstorm Overcast
9:15 PM 41.4 °F 34.7 °F 36.1 °F 82% 29.52 in 10.0 mi West 11.5 mph - N/A   Mostly Cloudy
9:35 PM 41.4 °F 34.3 °F 36.5 °F 83% 29.53 in 10.0 mi WNW 12.7 mph - N/A   Scattered Clouds
9:55 PM 40.3 °F 31.3 °F 36.5 °F 86% 29.54 in 10.0 mi WNW 18.4 mph 25.3 mph N/A   Scattered Clouds
10:15 PM 40.1 °F 31.6 °F 36.3 °F 86% 29.55 in 10.0 mi WNW 16.1 mph 27.6 mph N/A   Mostly Cloudy
10:35 PM 39.6 °F 31.3 °F 35.6 °F 86% 29.55 in 10.0 mi WNW 15.0 mph 25.3 mph N/A   Overcast
10:55 PM 39.2 °F 30.5 °F 35.2 °F 86% 29.55 in 10.0 mi WNW 16.1 mph 31.1 mph N/A   Overcast
11:15 PM 39.2 °F 30.5 °F 34.9 °F 84% 29.55 in 10.0 mi WNW 16.1 mph 28.8 mph N/A   Overcast
11:35 PM 38.3 °F 28.7 °F 34.7 °F 87% 29.56 in 10.0 mi WNW 18.4 mph 26.5 mph N/A   Overcast
11:55 PM 38.7 °F 28.0 °F 34.9 °F 86% 29.56 in 10.0 mi WNW 23.0 mph 35.7 mph N/A   Overcast